SCP
0 0 0 0 0 0 0 0 0 0 0 0 0 0 0 0 0 0 0 0 0 0 0 0 0 0 0 0 0 0 0 0 0 0 0 0 0 0 0 0 0 0 0 0
0 0 0 0 0 0 0 0 0 0 0 0 0 0 0 0 0 0 0 0 0 0 0 0 0 0 0 0 0 0 0 0 0 0 0 0 0 0 0 0 0 0 0 0
0 0 0 0 0 0 0 0 0 0 0 0 0 0 0 0 0 0 0 0 0 0 0 0 0 0 0 0 0 0 0 0 0 0 0 0 0 0 0 0 0 0 0 0
0 0 0 0 0 0 0 0 0 0 0 0 0 0 0 0 0 0 0 0 0 0 0 0 0 0 0 0 0 0 0 0 0 0 0 0 0 0 0 0 0 0 0 0
0 0 0 0 0 0 0 0 0 0 0 0 0 0 0 0 0 0 0 0 0 0 0 0 0 0 0 0 0 0 0 0 0 0 0 0 0 0 0 0 0 0 0 0
0 0 0 0 0 0 0 0 0 0 0 0 0 0 0 0 0 0 0 0 0 0 0 0 0 0 0 0 0 0 0 0 0 0 0 0 0 0 0 0 0 0 0 0
0 0 0 0 0 0 0 0 0 0 0 0 0 0 0 0 0 0 0 0 0 0 0 0 0 0 0 0 0 0 0 0 0 0 0 0 0 0 0 0 0 0 0 0
0 0 0 0 0 0 0 0 0 0 0 0 0 0 0 0 0 0 0 0 0 0 0 0 0 0 0 0 0 0 0 0 0 0 0 0 0 0 0 0 0 0 0 0
0 0 0 0 0 0 0 0 0 0 0 0 0 0 0 0 0 0 0 0 0 0 0 0 0 0 0 0 0 0 0 0 0 0 0 0 0 0 0 0 0 0 0 0
0 0 0 0 0 0 0 0 0 0 0 0 0 0 0 0 0 0 0 0 0 0 0 0 0 0 0 0 0 0 0 0 0 0 0 0 0 0 0 0 0 0 0 0
0 0 0 0 0 0 0 0 0 0 0 0 0 0 0 0 0 0 0 0 0 0 0 0 0 0 0 0 0 0 0 0 0 0 0 0 0 0 0 0 0 0 0 0
0 0 0 0 0 0 0 0 0 0 0 0 0 0 0 0 0 0 0 0 0 0 0 0 0 0 0 0 0 0 0 0 0 0 0 0 0 0 0 0 0 0 0 0
0 0 0 0 0 0 0 0 0 0 0 0 0 0 0 0 0 0 0 0 0 0 0 0 0 0 0 0 0 0 0 0 0 0 0 0 0 0 0 0 0 0 0 0
0 0 0 0 0 0 0 0 0 0 0 0 0 0 0 0 0 0 0 0 0 0 0 0 0 0 0 0 0 0 0 0 0 0 0 0 0 0 0 0 0 0 0 0
0 0 0 0 0 0 0 0 0 0 0 0 0 0 0 0 0 0 0 0 0 0 0 0 0 0 0 0 0 0 0 0 0 0 0 0 0 0 0 0 0 0 0 0
0 0 0 0 0 0 0 0 0 0 0 0 0 0 0 0 0 0 0 0 0 0 0 0 0 0 0 0 0 0 0 0 0 0 0 0 0 0 0 0 0 0 0 0
0 0 0 0 0 0 0 0 0 0 0 0 0 0 0 0 0 0 0 0 0 0 0 0 0 0 0 0 0 0 0 0 0 0 0 0 0 0 0 0 0 0 0 0
0 0 0 0 0 0 0 0 0 0 0 0 0 0 0 0 0 0 0 0 0 0 0 0 0 0 0 0 0 0 0 0 0 0 0 0 0 0 0 0 0 0 0 0
0 0 0 0 0 0 0 0 0 0 0 0 0 0 0 0 0 0 0 0 0 0 0 0 0 0 0 0 0 0 0 0 0 0 0 0 0 0 0 0 0 0 0 0
0 0 0 0 0 0 0 0 0 0 0 0 0 0 0 0 0 0 0 0 0 0 0 0 0 0 0 0 0 0 0 0 0 0 0 0 0 0 0 0 0 0 0 0
0 0 0 0 0 0 0 0 0 0 0 0 0 0 0 0 0 0 0 0 0 0 0 0 0 0 0 0 0 0 0 0 0 0 0 0 0 0 0 0 0 0 0 0
0 0 0 0 0 0 0 0 0 0 0 0 0 0 0 0 0 0 0 0 0 0 0 0 0 0 0 0 0 0 0 0 0 0 0 0 0 0 0 0 0 0 0 0
0 0 0 0 0 0 0 0 0 0 0 0 0 0 0 0 0 0 0 0 0 0 0 0 0 0 0 0 0 0 0 0 0 0 0 0 0 0 0 0 0 0 0 0
0 0 0 0 0 0 0 0 0 0 0 0 0 0 0 0 0 0 0 0 0 0 0 0 0 0 0 0 0 0 0 0 0 0 0 0 0 0 0 0 0 0 0 0
0 0 0 0 0 0 0 0 0 0 0 0 0 0 0 0 0 0 0 0 0 0 0 0 0 0 0 0 0 0 0 0 0 0 0 0 0 0 0 0 0 0 0 0
0 0 0 0 0 0 0 0 0 0 0 0 0 0 0 0 0 0 0 0 0 0 0 0 0 0 0 0 0 0 0 0 0 0 0 0 0 0 0 0 0 0 0 0
0 0 0 0 0 0 0 0 0 0 0 0 0 0 0 0 0 0 0 0 0 0 0 0 0 0 0 0 0 0 0 0 0 0 0 0 0 0 0 0 0 0 0 0
Wind_Speed
6 7 13 10 13 14 14 15 15 17 20 19 12 8 6 5 4 4 5 6 7 7 7 6 6 5 5 5 5 5 6 6 6 6 6 7 8 8 8 8 8 9 9 8
3 4 8 8 13 17 18 18 17 14 19 17 9 6 7 7 7 8 9 9 9 9 9 9 9 8 7 7 6 6 7 6 6 7 7 7 8 8 9 9 8 8 8 9
5 4 5 9 17 20 14 13 16 21 25 8 7 11 13 11 10 12 11 10 10 11 11 11 10 10 9 8 7 7 7 7 7 7 8 7 8 8 9 8 8 8 8 8
6 6 10 15 9 12 18 18 18 17 15 14 14 12 10 10 12 12 11 10 11 10 10 9 8 8 8 8 8 8 8 8 8 8 8 8 8 8 8 7 8 7 7 7
7 8 10 11 8 16 16 18 18 21 19 9 4 1 7 9 10 12 12 10 9 9 8 8 10 10 10 9 9 9 9 9 9 9 10 9 9 8 7 7 7 6 6 7
8 9 16 19 9 8 7 16 18 18 17 9 8 7 13 8 9 10 8 6 6 6 7 9 10 11 11 11 10 11 10 9 8 9 10 10 9 8 6 7 7 7 7 5
9 9 15 9 8 15 15 19 8 11 12 12 14 15 8 4 6 6 6 5 5 7 8 8 10 12 11 11 11 9 8 9 8 8 8 9 8 7 8 7 8 7 7 5
9 9 17 6 13 18 13 3 6 8 9 11 12 9 4 2 3 3 3 3 5 6 6 6 10 11 11 10 8 9 9 9 8 8 7 7 9 8 7 8 8 7 6 5
13 14 3 10 11 8 6 7 7 7 7 8 7 6 5 4 3 2 2 3 3 5 6 5 7 9 10 8 9 10 10 9 8 8 7 7 9 9 7 6 6 6 6 5
5 7 5 5 3 3 4 5 5 5 5 7 7 6 5 4 3 2 2 2 3 5 6 5 5 5 6 9 10 10 10 9 8 8 7 6 5 6 7 7 7 6 6 5
7 4 3 4 5 6 5 4 4 3 4 5 6 5 5 4 4 3 3 3 3 5 5 5 5 5 7 8 10 10 9 8 8 7 7 6 5 4 5 4 6 7 7 7
10 9 8 8 7 6 6 5 6 5 4 3 4 5 5 4 3 3 4 3 4 4 5 5 6 6 6 7 9 10 9 8 7 6 6 6 6 4 4 4 5 7 7 7
3 4 4 4 4 5 5 4 4 5 5 4 3 4 4 4 3 4 4 4 4 4 4 5 6 6 5 6 7 8 8 8 6 7 7 7 7 7 6 4 5 6 8 9
3 4 4 3 4 4 5 5 6 7 6 5 4 4 4 4 4 4 3 3 4 4 5 5 5 5 4 5 6 6 6 7 7 6 7 7 7 6 6 7 6 3 4 7
5 4 5 6 6 6 5 6 8 6 5 5 5 5 4 4 3 2 2 3 4 4 4 4 4 4 3 4 5 6 5 5 5 5 5 5 5 5 5 5 5 4 2 3
3 7 8 8 7 6 6 6 6 4 4 4 4 4 3 3 3 3 3 3 4 3 3 3 4 3 4 4 5 4 4 6 6 5 5 5 5 5 5 5 5 5 6 5
4 4 4 5 5 5 5 5 4 4 4 4 3 3 3 4 3 3 2 1 1 1 2 3 2 3 4 5 5 4 4 5 6 5 5 5 6 6 6 6 6 6 6 7
7 6 5 5 4 5 5 6 5 5 4 2 2 3 3 2 1 1 1 2 1 1 1 1 2 4 4 4 4 3 4 4 5 5 5 5 5 5 5 6 6 6 4 5
9 9 9 9 7 6 6 5 5 4 4 3 3 2 2 2 2 2 1 1 0 2 2 1 2 3 4 4 4 3 4 4 4 4 4 5 5 5 5 6 6 6 5 5
8 8 8 9 8 7 6 5 4 5 5 4 3 3 3 3 3 2 1 1 1 1 1 1 1 2 3 4 5 3 4 5 5 5 5 5 6 6 6 6 6 6 6 6
7 7 7 7 6 7 6 5 4 4 4 4 4 3 2 2 2 2 1 2 1 2 1 1 1 2 3 3 4 4 5 5 5 5 6 6 6 6 6 7 6 6 6 6
4 4 5 4 4 4 4 4 4 4 4 4 4 3 2 2 2 2 2 2 2 2 1 1 2 3 3 4 4 4 5 5 5 5 6 6 6 6 7 7 7 7 6 6
3 3 3 3 3 2 3 3 4 3 3 3 3 3 3 2 2 2 3 2 2 4 2 2 3 5 5 4 4 4 5 6 6 5 6 6 6 6 6 7 6 6 6 6
2 2 2 2 2 2 3 3 3 2 2 2 2 3 2 2 2 2 2 4 5 5 3 4 6 6 4 3 3 4 5 5 5 5 5 5 5 6 6 6 6 6 6 7
2 2 2 3 2 2 2 3 3 3 3 2 3 3 2 2 3 3 3 4 6 5 4 5 7 6 3 3 4 4 4 5 5 5 5 5 6 6 6 6 6 6 6 6
1 1 1 2 2 2 2 2 2 2 2 3 3 3 3 2 3 3 3 4 5 5 4 3 3 3 3 3 4 4 4 4 5 5 6 5 6 6 6 6 8 7 6 6
2 2 2 2 2 2 2 2 2 3 2 3 4 3 3 3 3 3 4 3 3 3 3 3 3 3 3 3 3 4 4 4 4 5 5 5 5 6 6 7 6 6 6 6
Wind_Direction
195 164 156 177 186 181 191 199 208 227 234 240 226 229 239 234 226 226 232 221 212 206 201 195 189 181 170 162 155 149 142 140 138 127 122 123 124 122 120 119 121 122 120 115
184 177 172 181 192 193 205 210 220 234 243 240 220 212 228 226 220 229 233 226 216 207 201 200 195 186 175 168 161 151 146 141 133 128 125 125 126 125 122 119 119 120 122 123
193 128 110 223 203 198 206 214 210 228 240 224 204 212 219 220 218 227 232 225 215 210 207 203 195 183 179 168 154 150 146 143 142 139 134 133 131 128 128 127 124 122 121 121
143 132 207 231 201 188 207 220 214 225 237 220 215 218 218 211 211 224 227 223 217 210 205 195 177 169 160 154 155 154 152 152 151 147 141 138 135 133 132 129 129 125 123 121
155 189 242 263 207 190 199 232 222 227 235 226 201 212 259 226 211 219 221 217 214 204 190 171 169 164 156 158 159 161 165 164 161 154 149 148 146 142 137 132 126 122 125 126
160 184 222 237 194 156 155 247 227 217 228 205 151 217 246 217 210 225 226 215 204 178 162 166 167 157 160 166 170 178 174 165 157 155 155 154 147 140 131 130 127 124 122 121
180 208 244 238 150 138 183 235 209 195 210 189 194 221 240 186 203 213 215 208 176 163 170 172 160 159 167 171 184 172 149 145 147 151 150 144 136 133 133 128 124 121 121 117
179 206 237 181 152 179 209 178 159 185 197 195 210 224 224 187 201 198 190 172 160 161 166 156 159 164 171 180 162 139 140 143 145 144 142 140 136 133 133 134 131 130 127 123
193 216 207 164 188 199 169 178 182 181 187 183 193 209 206 196 196 189 174 160 150 152 146 146 163 169 172 159 142 141 140 143 142 137 136 142 144 144 140 141 142 146 148 150
189 227 202 197 196 189 180 184 181 177 172 167 177 186 181 177 173 165 143 137 134 139 148 155 159 154 144 139 142 142 144 145 146 144 141 139 143 150 153 158 156 156 161 164
202 203 148 221 210 186 170 157 146 147 158 165 163 165 167 167 167 159 140 128 136 151 155 152 139 131 133 141 143 143 143 145 148 148 149 147 143 155 159 166 174 170 174 169
207 191 172 198 197 178 164 171 164 147 126 111 143 154 146 147 144 139 137 129 130 134 139 140 136 135 139 146 149 147 149 154 156 154 152 150 146 131 154 160 173 175 171 166
189 154 147 136 142 150 155 149 131 123 125 120 106 116 127 126 123 122 123 127 139 143 140 139 139 142 148 152 155 159 160 161 160 161 161 161 162 160 157 156 174 176 177 180
79 107 116 119 125 122 118 110 99 85 76 83 91 92 100 104 107 116 127 133 127 126 132 141 145 154 155 154 158 162 159 163 165 168 168 169 172 173 169 169 172 187 198 197
33 70 115 110 93 88 92 97 92 84 77 68 67 77 91 106 114 110 100 106 113 121 134 146 158 167 154 157 161 164 163 165 163 161 165 167 167 167 170 177 179 175 171 199
61 73 86 92 92 84 82 88 95 88 78 74 66 61 63 82 92 90 91 111 133 159 169 173 185 172 161 165 165 165 167 165 161 161 163 166 170 175 180 184 185 186 195 192
103 98 91 95 87 80 72 72 84 86 78 71 62 67 79 87 88 82 70 56 72 127 157 185 189 153 166 175 175 173 166 166 164 166 178 181 183 189 190 190 196 201 204 198
58 70 70 86 94 91 76 63 61 60 55 48 64 82 83 85 79 54 58 61 61 38 352 210 164 156 171 180 178 172 170 172 178 184 184 187 190 190 190 196 202 204 201 210
49 56 57 56 56 70 69 56 42 38 34 42 61 68 63 49 41 47 73 93 165 272 295 250 198 165 182 193 183 177 177 180 184 188 187 188 189 193 198 202 205 205 200 202
49 49 54 54 49 55 57 41 36 41 27 23 43 53 42 26 19 28 50 254 255 291 313 209 186 178 193 204 194 183 188 192 195 194 193 197 200 203 205 207 207 206 206 209
46 45 48 49 50 47 40 27 30 32 18 22 39 35 13 358 4 7 331 287 316 353 335 232 213 210 201 200 195 193 196 201 204 204 204 207 209 210 211 211 210 211 211 213
35 41 42 40 45 39 22 19 24 23 21 21 21 16 8 356 351 326 269 269 312 321 312 265 248 229 216 203 204 205 208 211 213 211 212 212 213 216 217 215 215 215 215 215
31 33 32 28 22 4 4 22 19 15 9 2 353 344 332 316 308 297 295 316 322 304 300 272 266 249 223 207 212 214 216 219 221 220 220 219 219 220 221 219 218 216 216 217
21 22 14 356 356 21 17 1 352 345 333 321 312 304 300 305 299 269 281 305 307 300 290 274 271 262 233 212 217 221 223 225 227 228 227 226 225 225 224 222 221 218 218 219
356 358 6 6 7 355 329 325 328 333 332 317 307 300 283 258 264 287 295 296 298 299 289 282 280 270 238 221 224 228 228 227 228 227 227 228 228 228 228 226 224 223 222 223
333 324 311 286 273 281 291 303 305 306 310 310 307 296 291 282 275 278 282 286 288 288 284 280 280 272 244 229 231 234 234 234 234 231 229 229 229 229 229 229 228 228 228 227
307 302 303 300 278 259 260 261 269 277 274 275 286 285 285 287 285 285 286 286 286 283 281 279 276 269 257 245 240 239 237 236 235 235 234 234 233 234 235 233 234 233 230 230